STARLINK-31547, 59364

Orbit data source: Space-Track

STARLINK-31547, 59364 is a payload satellite owned by SpaceX/Seattle (US) in LEO that was launched on Sun, 31 Mar 2024 UTC via an FALCON 9 launch vehicle from the Air Force Eastern Test Range (AFETR). Payload-class satellites include a variety of spacecraft equipped with specific instruments for various scientific and technological missions. These include communications satellites like Starlink; space stations such as the ISS; scientific satellites like the Hubble; Earth observation satellites from companies like Planet Labs, Umbra, and HawkEye 360; GPS; miniature CubeSats for education and research; and military/defense satellites.

Loading next visibility...
Identifier
59364, 2024-060S
Orbit
LEO
Country
Flag of USUS
Related business
Manufacturer
SpaceX/Seattle
Mission
Operational Commercial Communications
Bus & Motor
STARLINK V2M, Unknown motor
Mass
730 kg wet, ~700 kg dry
Launch date (UTC)
2024-03-31 (2 years ago)
Launch vehicle
FALCON 9
Launch site
Air Force Eastern Test Range (AFETR)
Object type
Payload
Rocket body
Debris
Shape & HBR
Box + 2 Pan, 17.7 m
Radar Cross Section
33.884 m², Large (>1 m²)

Expand to show TLE details & history
Last TLE update: 2 days ago

TLE from 2 days ago
0 STARLINK-31547
1 59364U 24060S   26171.01597287  .00001022  00000-0  46682-4 0  9990
2 59364  43.0046  30.6059 0001370 262.8930  97.1766 15.27577149125844
Epoch: 2026-06-20T00:23Z
TLE epoch observation values (Epoch: 2026-06-20T00:23:00.055Z)
Latitude
-0.00004°
Longitude
116.61898°
Altitude
482.951 km
Speed
7.626 km/s
True Right ascension
02h 02m 25s
True Declination
0° 00' 00"
Sunlit
Object was in daylight at epoch
Visualization orbit readout
Latitude
Unknown
Longitude
Unknown
Altitude
Unknown
Speed
Unknown
Apparent Right ascension
Unknown
Apparent Declination
Unknown
Sunlit
N/A
Visualization observer readout
Local Sidereal Time
23:20:30
Azimuth
Unknown
Elevation
Unknown
Doppler factor
Unknown
Orbital elements
Apogee altitude
485.942 km
Perigee altitude
484.062 km
Semi-major axis
6,863.139 km
Eccentricity
0.00014
Inclination
43.0046°
RAAN
30.6059°
Arg. of periapsis
262.893°
True anomaly
97.19218°
Mean anomaly
97.1766°
Eccentric anomaly
97.18439°
Mean motion
3.81732 °/min
Orbital period
94.31 mins
BSTAR
0.000046682
Loading maneuver chart data...
Computing Atmospheric mass density...
Loading historical data...
Loading historical data...
Loading historical data...
Loading historical data...
Loading historical data...
Loading historical data...
Loading historical data...

Documentation

Showing up to 5 results
|